GW2459 Weather Reports


time (UTC)temp
F
wind
direction
speed
knots
gust
knots
rain 1hr
in
rain 24hr
in
rain mn
in
humidity
%
barometer
mb
20260503181518 73 263 0.0 1.7 0.00 0.00 0.00 46 1014.9
20260503181014 71 264 2.6 2.6 0.00 0.00 0.00 49 1015.0
20260503180512 71 248 3.5 4.3 0.00 0.00 0.00 50 1015.1
20260503180009 71 197 0.9 0.9 0.00 0.00 0.00 48 1014.9
20260503175506 72 271 2.6 4.3 0.00 0.00 0.00 48 1015.0
20260503175003 71 247 1.7 1.7 0.00 0.00 0.00 48 1015.0
20260503174501 72 291 3.5 5.2 0.00 0.00 0.00 48 1015.3
20260503173956 73 161 0.0 0.0 0.00 0.00 0.00 43 1015.2
20260503173451 71 98 0.0 0.0 0.00 0.00 0.00 46 1015.2
20260503172948 71 273 0.9 0.9 0.00 0.00 0.00 46 1015.2
20260503172446 71 164 0.0 0.0 0.00 0.00 0.00 46 1015.2
20260503171942 70 190 0.9 1.7 0.00 0.00 0.00 46 1015.3
20260503171439 70 110 0.0 0.0 0.00 0.00 0.00 47 1015.5
20260503170937 69 115 0.9 0.9 0.00 0.00 0.00 48 1015.4
20260503170432 68 143 1.7 2.6 0.00 0.00 0.00 50 1015.3
20260503150825 62 116 0.0 0.9 0.00 0.00 0.00 65 1015.9
20260503150321 62 108 0.0 0.0 0.00 0.00 0.00 63 1016.1
20260503140246 59 112 0.0 0.0 0.00 0.00 0.00 65 1015.9
20260503131215 55 212 0.0 0.0 0.00 0.00 0.00 72 1015.8
20260503130713 55 212 0.0 0.0 0.00 0.00 0.00 73 1015.7
20260503130210 55 202 0.0 0.0 0.00 0.00 0.00 74 1015.6
20260503120135 58 107 0.0 0.0 0.00 0.00 0.00 62 1015.5
20260503110603 56 199 0.0 0.0 0.00 0.00 0.00 73 1015.6
20260503090450 60 214 0.0 0.0 0.00 0.00 0.00 64 1015.5
20260503081416 62 216 0.0 0.0 0.00 0.00 0.00 57 1015.6
20260503080914 62 155 0.0 0.0 0.00 0.00 0.00 56 1015.6
20260503080410 61 162 0.0 0.0 0.00 0.00 0.00 58 1015.5
20260503072846 65 108 0.0 0.0 0.00 0.00 0.00 49 1015.5
20260503072338 64 70 0.0 0.0 0.00 0.00 0.00 50 1015.4
20260503071834 64 106 0.0 0.0 0.00 0.00 0.00 51 1015.5
20260503071331 65 130 0.0 0.0 0.00 0.00 0.00 51 1015.2
20260503070827 65 135 0.0 0.0 0.00 0.00 0.00 50 1015.3
20260503070326 65 128 0.0 0.0 0.00 0.00 0.00 51 1015.2
20260503060238 64 116 0.0 0.0 0.00 0.00 0.00 55 1015.0
20260503054726 67 114 0.0 0.0 0.00 0.00 0.00 54 1014.9
20260503054222 67 119 0.0 0.0 0.00 0.00 0.00 52 1014.9
20260503053720 67 118 0.0 0.0 0.00 0.00 0.00 51 1014.7
20260503053219 68 102 0.0 0.0 0.00 0.00 0.00 50 1014.9
20260503052715 68 102 0.0 0.0 0.00 0.00 0.00 50 1014.8
20260503052212 67 102 0.0 0.0 0.00 0.00 0.00 51 1014.8
20260503051707 66 91 0.0 0.0 0.00 0.00 0.00 52 1015.0
20260503051205 66 91 0.0 0.0 0.00 0.00 0.00 53 1014.9
20260503050701 67 88 0.0 0.0 0.00 0.00 0.00 53 1014.7
20260503050157 68 114 0.0 0.0 0.00 0.00 0.00 52 1014.7
20260503045655 68 59 0.9 0.9 0.00 0.00 0.00 51 1014.7
20260503045152 68 117 0.0 0.0 0.00 0.00 0.00 52 1014.7
20260503044648 68 117 0.0 0.0 0.00 0.00 0.00 52 1014.6
20260503044146 67 116 0.0 0.0 0.00 0.00 0.00 53 1014.6
20260503043643 67 184 0.0 0.0 0.00 0.00 0.00 55 1014.7
20260503043140 67 153 0.0 0.0 0.00 0.00 0.00 56 1014.7
20260503042636 67 174 0.0 0.0 0.00 0.00 0.00 56 1014.7
20260503042132 68 120 0.0 0.0 0.00 0.00 0.00 55 1014.5
20260503041629 68 112 0.0 0.0 0.00 0.00 0.00 53 1014.6
20260503041127 68 94 0.0 0.0 0.00 0.00 0.00 53 1014.5
20260503040624 68 214 0.0 0.0 0.00 0.00 0.00 55 1014.3
20260503040121 68 217 0.0 0.0 0.00 0.00 0.00 54 1014.3
20260503035617 69 219 0.0 0.0 0.00 0.00 0.00 52 1014.2
20260503035116 69 217 0.0 0.0 0.00 0.00 0.00 51 1014.1
20260503034613 69 199 0.0 0.0 0.00 0.00 0.00 50 1014.2
20260503034110 70 201 0.0 0.0 0.00 0.00 0.00 48 1014.2
20260503033607 70 111 0.0 0.0 0.00 0.00 0.00 48 1014.0
20260503033104 70 236 0.0 0.0 0.00 0.00 0.00 49 1014.0
20260503032603 71 297 0.0 0.0 0.00 0.00 0.00 48 1013.8
20260503032101 72 283 3.5 5.2 0.00 0.00 0.00 45 1013.8
20260503031558 72 280 4.3 5.2 0.00 0.00 0.00 44 1013.8
20260503031055 73 269 4.3 5.2 0.00 0.00 0.00 44 1013.7
20260503030551 73 269 3.5 4.3 0.00 0.00 0.00 43 1013.8
20260503030048 73 256 3.5 4.3 0.00 0.00 0.00 43 1013.7
20260503025545 74 256 3.5 4.3 0.00 0.00 0.00 42 1013.8
20260503025043 74 268 4.3 5.2 0.00 0.00 0.00 42 1013.7
20260503024538 74 280 3.5 5.2 0.00 0.00 0.00 41 1013.8
20260503024037 74 280 4.3 5.2 0.00 0.00 0.00 41 1013.8
20260503023533 75 271 3.5 4.3 0.00 0.00 0.00 41 1013.7
20260503023031 75 250 2.6 2.6 0.00 0.00 0.00 41 1013.6
20260503022526 76 251 2.6 2.6 0.00 0.00 0.00 39 1013.8
20260503022021 76 243 2.6 2.6 0.00 0.00 0.00 39 1014.0
20260503021518 77 262 2.6 2.6 0.00 0.00 0.00 39 1013.8
20260503021015 76 232 2.6 4.3 0.00 0.00 0.00 39 1013.8
20260503020512 76 285 5.2 6.1 0.00 0.00 0.00 38 1013.9
20260503020009 77 250 4.3 5.2 0.00 0.00 0.00 38 1013.9
20260503015506 77 237 1.7 1.7 0.00 0.00 0.00 39 1014.0
20260503015003 77 294 6.1 7.0 0.00 0.00 0.00 38 1013.9
20260503014459 77 274 5.2 7.0 0.00 0.00 0.00 38 1013.9
20260503013957 77 282 6.1 7.0 0.00 0.00 0.00 38 1013.9
20260503013454 77 250 2.6 4.3 0.00 0.00 0.00 37 1014.1
20260503012951 78 282 5.2 6.1 0.00 0.00 0.00 37 1014.2
20260503012449 77 271 4.3 6.1 0.00 0.00 0.00 36 1014.1
20260503011944 77 285 7.0 8.7 0.00 0.00 0.00 36 1014.2
20260503011442 77 259 4.3 5.2 0.00 0.00 0.00 37 1014.0
20260503010939 78 268 6.1 7.8 0.00 0.00 0.00 38 1014.4
20260503010436 78 273 8.7 9.6 0.00 0.00 0.00 37 1014.3
20260503005933 77 286 5.2 6.1 0.00 0.00 0.00 39 1014.2
20260503005430 77 277 7.8 11.3 0.00 0.00 0.00 37 1014.2
20260503004927 77 274 4.3 4.3 0.00 0.00 0.00 38 1014.3
20260503004423 77 270 7.0 8.7 0.00 0.00 0.00 38 1014.4
20260503003921 77 276 7.8 8.7 0.00 0.00 0.00 38 1014.4
20260503003418 77 266 7.8 9.6 0.00 0.00 0.00 39 1014.2
20260503002915 78 272 5.2 6.1 0.00 0.00 0.00 38 1014.4
20260503002412 77 248 5.2 6.1 0.00 0.00 0.00 36 1014.4
20260503001908 78 266 10.4 13.9 0.00 0.00 0.00 36 1014.5
20260503001405 78 277 7.0 8.7 0.00 0.00 0.00 36 1014.5
20260503000903 78 265 4.3 6.1 0.00 0.00 0.00 38 1014.5
20260503000400 77 266 4.3 5.2 0.00 0.00 0.00 37 1014.7
20260502235856 78 266 7.8 8.7 0.00 0.00 0.00 36 1014.6
20260502235353 77 266 5.2 7.0 0.00 0.00 0.00 36 1014.7
20260502234851 78 276 7.8 9.6 0.00 0.00 0.00 36 1014.8
20260502234347 77 255 5.2 7.8 0.00 0.00 0.00 36 1014.6
20260502233844 77 263 6.1 7.0 0.00 0.00 0.00 37 1014.8
20260502233340 77 225 10.4 13.0 0.00 0.00 0.00 35 1014.9
20260502232837 77 271 6.1 8.7 0.00 0.00 0.00 36 1014.9
20260502232333 78 271 5.2 7.0 0.00 0.00 0.00 37 1014.9
20260502231830 78 265 7.0 8.7 0.00 0.00 0.00 36 1015.0
20260502231328 78 271 7.8 7.8 0.00 0.00 0.00 36 1015.1
20260502230826 77 271 7.0 7.8 0.00 0.00 0.00 38 1015.1
20260502230324 77 263 6.1 7.0 0.00 0.00 0.00 39 1015.2
20260502225820 77 260 8.7 8.7 0.00 0.00 0.00 38 1015.1
20260502225317 76 279 7.8 8.7 0.00 0.00 0.00 39 1015.3
20260502224814 75 266 7.8 8.7 0.00 0.00 0.00 39 1015.4
20260502224310 76 293 10.4 12.2 0.00 0.00 0.00 38 1015.3
20260502223808 75 269 7.8 9.6 0.00 0.00 0.00 41 1015.4
20260502223306 75 270 6.1 7.0 0.00 0.00 0.00 42 1015.4
20260502222803 76 262 6.1 7.0 0.00 0.00 0.00 40 1015.7
20260502222300 76 264 7.0 8.7 0.00 0.00 0.00 39 1015.6
20260502221755 76 242 4.3 5.2 0.00 0.00 0.00 39 1015.8
20260502221252 76 253 6.1 9.6 0.00 0.00 0.00 39 1015.6
20260502220749 75 274 7.0 12.2 0.00 0.00 0.00 39 1015.8
20260502220245 76 260 9.6 9.6 0.00 0.00 0.00 38 1015.8
20260502215742 75 173 7.0 11.3 0.00 0.00 0.00 43 1015.8
20260502215239 76 257 6.1 7.0 0.00 0.00 0.00 43 1016.0
20260502214736 76 280 6.1 7.8 0.00 0.00 0.00 43 1016.1
20260502214235 76 262 6.1 7.8 0.00 0.00 0.00 42 1016.1
20260502213731 76 278 4.3 5.2 0.00 0.00 0.00 43 1016.3
20260502213228 75 279 5.2 6.1 0.00 0.00 0.00 44 1016.4
20260502212726 75 249 2.6 4.3 0.00 0.00 0.00 44 1016.3
20260502212224 75 267 11.3 13.0 0.00 0.00 0.00 45 1016.2
20260502211720 75 277 4.3 6.1 0.00 0.00 0.00 51 1016.5
20260502211217 74 257 7.8 9.6 0.00 0.00 0.00 52 1016.1
20260502210714 75 293 7.0 9.6 0.00 0.00 0.00 52 1016.4
20260502210211 75 257 5.2 7.0 0.00 0.00 0.00 53 1016.3
20260502205708 74 140 3.5 4.3 0.00 0.00 0.00 52 1016.6
20260502205205 74 248 7.0 7.8 0.00 0.00 0.00 52 1016.6
20260502204702 74 273 6.1 7.8 0.00 0.00 0.00 50 1016.5
20260502204159 74 281 4.3 6.1 0.00 0.00 0.00 50 1016.7
20260502203656 74 265 4.3 6.1 0.00 0.00 0.00 51 1016.8
20260502203155 74 267 2.6 2.6 0.00 0.00 0.00 50 1016.8
20260502202648 73 277 2.6 2.6 0.00 0.00 0.00 52 1017.0
20260502202147 74 282 7.0 8.7 0.00 0.00 0.00 50 1016.7
20260502201644 74 261 4.3 5.2 0.00 0.00 0.00 51 1017.1
20260502201140 73 265 5.2 7.0 0.00 0.00 0.00 52 1017.0
20260502200636 73 286 3.5 5.2 0.00 0.00 0.00 54 1017.2
20260502200133 72 256 7.8 8.7 0.00 0.00 0.00 54 1017.2
20260502195631 72 292 4.3 5.2 0.00 0.00 0.00 55 1017.3
20260502195127 72 277 4.3 5.2 0.00 0.00 0.00 56 1017.4
20260502194624 72 251 1.7 1.7 0.00 0.00 0.00 56 1017.2
20260502194121 71 274 6.1 7.0 0.00 0.00 0.00 57 1017.4
20260502193617 72 255 3.5 6.1 0.00 0.00 0.00 56 1017.5
20260502193114 71 283 2.6 4.3 0.00 0.00 0.00 57 1017.4
20260502192609 71 259 4.3 7.0 0.00 0.00 0.00 56 1017.6
20260502192107 71 255 7.0 7.8 0.00 0.00 0.00 57 1017.5
20260502191603 71 274 2.6 2.6 0.00 0.00 0.00 58 1017.5
20260502191056 71 260 5.2 7.0 0.00 0.00 0.00 58 1017.7
20260502190553 70 295 7.8 7.8 0.00 0.00 0.00 58 1017.7
20260502190050 70 288 7.8 7.8 0.00 0.00 0.00 57 1017.8
20260502185545 70 256 1.7 2.6 0.00 0.00 0.00 58 1017.7
20260502185042 70 227 0.9 1.7 0.00 0.00 0.00 57 1017.8
20260502184538 70 231 0.9 1.7 0.00 0.00 0.00 58 1017.9
20260502184034 71 271 2.6 4.3 0.00 0.00 0.00 57 1017.7
20260502183530 69 271 2.6 2.6 0.00 0.00 0.00 60 1017.7
20260502183027 69 254 2.6 2.6 0.00 0.00 0.00 60 1017.8
20260502182522 69 274 0.0 1.7 0.00 0.00 0.00 59 1017.8
20260502182018 69 274 3.5 5.2 0.00 0.00 0.00 59 1017.8